[[{"header":{"parameterUnit":"m.s-1","parameterCategory":1,"la1":30.2991,"la2":30.254,"lo1":-89.0895,"lo2":-89.0444,"dy":0.0017,"dx":0.0017,"nx":28,"ny":28,"refTime":"2025-01-03T09:00:00:Z","depth":0,"parameterNumber":2,"parameterNumberName":"U-component_of_WINDS"},"data":[0,0,0,0,0,0,0,0,0,0,0,0,0,0,0,0,0,0,0,0,0,0,0,0,0,0,0,0,0,0,0,0,0,0,0,0,0,0,0,0,0,0,0,0,0,0,0,0,0,0,0,0,0,0,0,0,0,0,-5.7902,-5.7901,0,-5.7874,-5.7873,-5.7873,-5.7688,-5.7683,-5.7679,-5.7675,-5.7651,-5.7654,-5.7658,0,0,0,0,0,0,0,0,0,0,0,0,0,-5.7798,-5.7801,-5.7902,-5.7901,-5.7901,-5.7874,-5.7873,-5.7873,-5.7689,-5.7683,-5.7678,-5.7673,-5.765,-5.7654,-5.7658,0,0,0,0,0,0,0,0,0,0,0,0,0,-5.7814,-5.7802,-5.7902,-5.7805,-5.7797,-5.7874,-5.7873,-5.7873,-5.769,-5.7683,-5.7676,-5.767,-5.7648,-5.7654,-5.7659,-5.7828,0,0,-5.7675,-5.7678,0,0,0,0,0,0,0,0,-5.7814,-5.7818,-5.782,-5.7812,-5.7802,-5.7777,-5.7828,-5.7858,-5.7692,-5.7731,-5.7675,-5.7667,-5.7699,-5.77,-5.7709,-5.7827,-5.7826,-5.7676,-5.7679,-5.7681,-5.7683,0,0,0,0,0,0,0,-5.7813,-5.7819,-5.7891,-5.782,-5.781,-5.7765,-5.776,-5.7833,-5.7753,-5.7727,-5.7713,-5.7712,-5.7693,-5.7705,-5.7708,-5.7825,-5.7676,-5.768,-5.7684,-5.7686,-5.8078,-5.8085,0,0,0,0,0,0,-5.7825,-5.7819,-5.7891,-5.789,-5.7791,-5.7772,-5.7766,-5.7792,-5.7752,-5.7739,-5.7718,-5.7704,-5.7699,-5.7701,-5.7706,-5.7899,-5.7681,-5.7686,-5.7689,-5.8071,-5.808,-5.8087,0,0,0,0,0,0,-5.7823,-5.7833,-5.7893,-5.7851,-5.7855,-5.7781,-5.7812,-5.7795,-5.7807,-5.7745,-5.773,-5.7745,-5.7694,-5.7698,-5.7798,-5.7896,-5.7689,-5.7694,-5.8062,-5.8074,-5.8084,-5.8289,0,0,0,0,0,0,-5.7821,-5.7833,-5.7896,-5.7853,-5.7858,-5.7985,-5.7818,-5.78,-5.7816,-5.7797,-5.7766,-5.7755,-5.7689,-5.7791,-5.7804,-5.7899,-5.7698,-5.8053,-5.8067,-5.808,-5.8273,-5.8305,-5.8333,0,0,0,0,0,-5.7818,-5.7956,-5.79,-5.791,-5.7934,-5.7991,-5.7993,-5.7913,-5.7825,-5.7887,-5.7848,-5.7756,-5.7884,-5.7803,-5.7815,-5.7914,-5.8047,-5.8063,-5.8079,-5.8259,-5.8299,-5.8332,0,0,0,0,0,0,-5.8014,-5.7949,-5.7886,-5.8014,-5.8009,-5.7959,-5.8036,-5.7958,-5.7979,-5.796,-5.7861,-5.7856,-5.7971,-5.7952,-5.7864,-5.8075,-5.7949,-5.7969,-5.8082,-5.8119,-5.8149,-5.815,-5.7702,0,0,0,0,0,-5.8072,-5.8122,-5.8063,-5.8182,-5.8183,-5.8111,-5.8132,-5.8071,-5.8062,-5.8059,-5.8027,-5.8023,-5.8062,-5.809,-5.8122,-5.827,-5.826,-5.8344,-5.8374,-5.8399,-5.8417,-5.8492,-5.8528,-5.8141,-5.814,-5.814,0,0,-5.8193,-5.8164,-5.8202,-5.8221,-5.821,-5.8264,-5.811,-5.8175,-5.8214,-5.807,-5.816,-5.8137,-5.8126,-5.8251,-5.8303,-5.8239,-5.8522,-5.842,-5.844,-5.8444,-5.8512,-5.8549,-5.8582,-5.8152,-5.815,-5.8148,0,0,-5.8441,-5.8424,-5.852,-5.8512,-5.8496,-5.8447,-5.847,-5.8432,-5.841,-5.85,-5.8392,-5.8439,-5.8508,-5.8504,-5.8512,-5.8758,-5.8673,-5.8772,-5.8928,-5.9002,-5.9033,-5.9059,-5.9145,-5.9178,-5.8789,-5.879,-5.879,0,-5.8593,-5.8669,-5.858,-5.8651,-5.8663,-5.8533,-5.8629,-5.8626,-5.8624,-5.8635,-5.8562,-5.8646,-5.863,-5.875,-5.881,-5.8821,-5.8845,-5.8774,-5.9035,-5.9061,-5.9084,-5.9165,-5.9198,-5.8802,-5.88,-5.8799,-5.8798,0,-5.8857,-5.8912,-5.8992,-5.8989,-5.901,-5.9095,-5.9019,-5.9051,-5.8988,-5.8947,-5.904,-5.9016,-5.9041,-5.9065,-5.9006,-5.9177,-5.9137,-5.9053,-5.8924,-5.9135,-5.9209,-5.924,-5.8819,-5.8815,-5.8811,-5.8808,0,0,-5.9227,-5.9173,-5.9204,-5.92,-5.9173,-5.9214,-5.9293,-5.9315,-5.9344,-5.9347,-5.941,-5.9472,-5.9392,-5.9401,-5.9339,-5.9405,-5.96,-5.9311,-5.9309,-5.9364,-5.9786,-5.9849,-5.9887,-5.9544,-5.955,-5.9554,-5.9786,0,-5.9462,-5.9591,-5.9512,-5.9653,-5.9702,-5.958,-5.9648,-5.964,-5.9604,-5.9641,-5.9602,-5.9646,-5.9539,-5.9543,-5.9602,-5.9564,-5.9683,-5.9546,-5.9602,-5.9605,-5.9606,-5.9926,-5.9993,-6.0213,-5.9815,-5.982,-5.9824,0,-5.9754,-5.9767,-5.9912,-5.9874,-5.9892,-5.9954,-5.9967,-6.0005,-5.9993,-5.9962,-5.9972,-5.9894,-5.9969,-5.9844,-5.9946,-5.9855,-5.9873,-5.9858,-5.9864,-5.9865,-5.9726,-5.9933,-6.0281,-6.0314,-5.9869,-5.9865,-5.9862,0,-6.0007,-6.0061,-6.0153,-6.0155,-6.0114,-6.016,-6.0145,-6.0126,-6.0145,-6.0158,-6.0168,-6.0191,-6.0203,-6.0223,-6.0154,-6.0069,-6.0265,-6.0134,-6.0241,-6.0243,-6.0286,-6.0284,-6.064,-6.0303,-6.0302,-6.0301,-6.0301,0,-6.0277,-6.037,-6.0266,-6.0323,-6.0424,-6.0334,-6.0437,-6.041,-6.0394,-6.0444,-6.0341,-6.0391,-6.0298,-6.0339,-6.0285,-6.0377,-6.0384,-6.0361,-6.0346,-6.0369,-6.0372,-6.0379,-6.0361,-6.031,-6.0308,-6.0306,-6.0305,0,-6.0575,-6.0509,-6.0602,-6.0555,-6.0545,-6.0622,-6.0581,-6.0633,-6.059,-6.0655,-6.0665,-6.0599,-6.0641,-6.0574,-6.061,-6.0574,-6.0701,-6.0663,-6.0704,-6.0692,-6.0802,-6.0792,-6.1173,-6.1218,-6.0855,-6.0858,-6.0861,0,-6.0751,-6.0819,-6.0778,-6.0803,-6.0794,-6.0837,-6.0854,-6.0769,-6.0791,-6.0782,-6.0835,-6.0869,-6.0891,-6.0965,-6.092,-6.0947,-6.0908,-6.104,-6.0911,-6.0932,-6.0907,-6.0903,-6.0909,-6.1065,-6.107,-6.1073,-6.1076,0,-6.1069,-6.1032,-6.106,-6.1077,-6.11,-6.111,-6.1112,-6.1139,-6.1049,-6.108,-6.1121,-6.1138,-6.1173,-6.1208,-6.1223,-6.1209,-6.1129,-6.1117,-6.1143,-6.1167,-6.1187,-6.1176,-6.0774,-6.1109,-6.1105,-6.1103,-6.1101,-6.11,-6.1309,-6.1363,-6.1343,-6.1377,-6.1369,-6.1374,-6.1419,-6.1381,-6.1413,-6.1433,-6.1382,-6.1436,-6.1422,-6.1434,-6.1429,-6.147,-6.1412,-6.145,-6.1459,-6.1469,-6.1486,-6.1183,-6.1473,-6.1472,-6.1471,-6.147,-6.1469,0,-6.162,-6.16,-6.1633,-6.1637,-6.1665,-6.1585,-6.1583,-6.1612,-6.1659,-6.1653,-6.1676,-6.1723,-6.1756,-6.1714,-6.174,-6.1781,-6.1745,-6.1791,-6.1786,-6.1783,-6.1537,-6.1511,-6.1819,-6.1819,-6.1819,-6.1819,-6.1819,-6.1819,-6.1784,-6.1871,-6.1833,-6.1915,-6.1895,-6.1945,-6.1951,-6.1954,-6.1948,-6.2004,-6.203,-6.2002,-6.1982,-6.2005,-6.2032,-6.2019,-6.2032,-6.2091,-6.2065,-6.1835,-6.1801,-6.1768,-6.1743,-6.2095,-6.2096,-6.2307,-6.2309,-6.2311]},{"header":{"parameterUnit":"m.s-1","parameterCategory":1,"la1":30.2991,"la2":30.254,"lo1":-89.0895,"lo2":-89.0444,"dy":0.0017,"dx":0.0017,"nx":28,"ny":28,"refTime":"2025-01-03T09:00:00:Z","depth":0,"parameterNumber":3,"parameterNumberName":"V-component_of_WINDS"},"data":[0,0,0,0,0,0,0,0,0,0,0,0,0,0,0,0,0,0,0,0,0,0,0,0,0,0,0,0,0,0,0,0,0,0,0,0,0,0,0,0,0,0,0,0,0,0,0,0,0,0,0,0,0,0,0,0,0,0,-0.0154,-0.0154,0,-0.0128,-0.0127,-0.0127,-0.0135,-0.0135,-0.0136,-0.0136,-0.0111,-0.011,-0.0109,0,0,0,0,0,0,0,0,0,0,0,0,0,-0.021,-0.0209,-0.0154,-0.0154,-0.0153,-0.0128,-0.0127,-0.0127,-0.0135,-0.0135,-0.0136,-0.0137,-0.0111,-0.011,-0.0109,0,0,0,0,0,0,0,0,0,0,0,0,0,-0.0185,-0.0209,-0.0154,-0.0154,-0.0154,-0.0128,-0.0127,-0.0127,-0.0135,-0.0135,-0.0136,-0.0137,-0.0112,-0.011,-0.0108,-0.0081,0,0,-0.0103,-0.0102,0,0,0,0,0,0,0,0,-0.0187,-0.0183,-0.0154,-0.0154,-0.0154,-0.0135,-0.0138,-0.0112,-0.0134,-0.0142,-0.0136,-0.0137,-0.0119,-0.0116,-0.011,-0.008,-0.0079,-0.0103,-0.0102,-0.0101,-0.01,0,0,0,0,0,0,0,-0.0188,-0.0184,-0.0144,-0.0154,-0.0154,-0.0155,-0.0152,-0.0133,-0.0126,-0.0141,-0.0142,-0.0139,-0.0119,-0.0111,-0.0109,-0.0079,-0.0103,-0.0101,-0.01,-0.01,-0.0022,-0.0021,0,0,0,0,0,0,-0.019,-0.0186,-0.0145,-0.0143,-0.0172,-0.0153,-0.015,-0.014,-0.0126,-0.0125,-0.0138,-0.0139,-0.0114,-0.0111,-0.0108,-0.0073,-0.0101,-0.0099,-0.0098,-0.0023,-0.0021,-0.002,0,0,0,0,0,0,-0.0191,-0.0186,-0.0146,-0.0164,-0.0159,-0.0152,-0.014,-0.014,-0.0132,-0.0124,-0.0123,-0.0132,-0.0114,-0.0111,-0.0087,-0.0072,-0.0099,-0.0097,-0.0024,-0.0022,-0.0021,-0.0004,0,0,0,0,0,0,-0.0193,-0.0187,-0.0177,-0.0164,-0.0158,-0.0125,-0.0139,-0.0138,-0.0129,-0.013,-0.0118,-0.0116,-0.0115,-0.009,-0.0085,-0.007,-0.0096,-0.0025,-0.0023,-0.0021,-0.0006,-0.0002,0.0001,0,0,0,0,0,-0.0195,-0.0174,-0.0176,-0.0171,-0.0146,-0.0124,-0.0121,-0.0119,-0.0128,-0.0117,-0.0111,-0.0117,-0.0075,-0.0087,-0.0082,-0.0067,-0.0026,-0.0024,-0.0022,-0.0007,-0.0003,0.0001,0,0,0,0,0,0,-0.0187,-0.0173,-0.0175,-0.015,-0.0138,-0.0126,-0.0112,-0.0115,-0.0101,-0.0103,-0.0102,-0.0099,-0.0074,-0.0068,-0.0082,-0.0038,-0.0052,-0.0048,-0.0042,-0.0038,-0.0035,-0.0036,-0.0094,0,0,0,0,0,-0.0182,-0.0166,-0.0154,-0.0133,-0.0127,-0.012,-0.0111,-0.011,-0.0099,-0.0094,-0.0086,-0.0075,-0.0058,-0.0048,-0.0033,-0.0005,-0.0001,0.0008,0.0012,0.0015,0.0018,0.0036,0.0041,-0.0013,-0.0013,-0.0013,0,0,-0.0172,-0.0162,-0.0153,-0.0131,-0.0122,-0.0104,-0.0116,-0.0098,-0.0085,-0.0092,-0.0068,-0.0061,-0.0048,-0.0021,-0.0009,-0.0016,0.0034,0.0017,0.002,0.0021,0.0039,0.0044,0.0048,-0.0011,-0.0012,-0.0012,0,0,-0.0145,-0.0137,-0.0116,-0.0106,-0.0092,-0.0087,-0.0082,-0.0069,-0.0064,-0.004,-0.0044,-0.0028,-0.0001,0.001,0.0019,0.0054,0.005,0.0058,0.0077,0.0094,0.0099,0.0102,0.0117,0.0122,0.0061,0.0061,0.0061,0,-0.0135,-0.0109,-0.0106,-0.0086,-0.0076,-0.0079,-0.0058,-0.0048,-0.003,-0.0022,-0.003,0.0007,0.0015,0.0046,0.0055,0.0061,0.0068,0.0057,0.0098,0.0102,0.0105,0.0119,0.0125,0.0062,0.0062,0.0062,0.0062,0,-0.0095,-0.0077,-0.0062,-0.0042,-0.003,-0.001,-0.0004,0.0008,0.0009,0.0015,0.0041,0.0051,0.007,0.0077,0.0076,0.0109,0.0105,0.0097,0.0084,0.0112,0.0125,0.013,0.0064,0.0064,0.0063,0.0063,0,0,-0.0064,-0.0041,-0.0035,-0.0025,-0.0007,0.0007,0.0028,0.0048,0.0059,0.0072,0.0091,0.0116,0.0111,0.0121,0.0122,0.0137,0.0168,0.0129,0.0129,0.0137,0.0206,0.0213,0.0219,0.0165,0.0166,0.0167,0.0206,0,-0.0034,0.0004,0.0008,0.0042,0.0061,0.0059,0.0078,0.0091,0.0098,0.0115,0.0122,0.014,0.0131,0.0137,0.0153,0.0161,0.0182,0.0158,0.0184,0.0185,0.0182,0.0225,0.0231,0.0267,0.0211,0.0212,0.0212,0,0.0006,0.0023,0.0059,0.0077,0.0085,0.0101,0.0121,0.0137,0.0153,0.0157,0.017,0.017,0.0193,0.0179,0.0212,0.0195,0.0207,0.0212,0.0214,0.0217,0.0201,0.0231,0.0278,0.0285,0.022,0.022,0.0219,0,0.0028,0.0059,0.0086,0.0094,0.0115,0.0128,0.0137,0.0152,0.0165,0.0182,0.019,0.021,0.022,0.0236,0.0242,0.023,0.0275,0.026,0.028,0.028,0.029,0.0289,0.0341,0.0295,0.0295,0.0295,0.0295,0,0.0062,0.0084,0.0097,0.0113,0.0139,0.0145,0.017,0.0179,0.0193,0.0212,0.0211,0.0229,0.0235,0.0254,0.0259,0.0287,0.0291,0.0296,0.0297,0.0297,0.0296,0.0304,0.0303,0.0296,0.0296,0.0296,0.0295,0,0.009,0.0099,0.0128,0.0147,0.0152,0.0171,0.0187,0.0204,0.0211,0.0235,0.0241,0.0253,0.0276,0.0283,0.031,0.0313,0.0347,0.0345,0.0342,0.0342,0.0362,0.0361,0.0422,0.0431,0.0378,0.0378,0.0379,0,0.0112,0.013,0.0151,0.0164,0.0174,0.0195,0.0209,0.0215,0.023,0.0251,0.0265,0.0288,0.0307,0.0344,0.0355,0.0376,0.0376,0.0396,0.0379,0.0379,0.0379,0.0378,0.0381,0.0399,0.04,0.04,0.0401,0,0.015,0.0154,0.0174,0.0196,0.0213,0.023,0.0247,0.0258,0.0268,0.0284,0.0308,0.0323,0.0352,0.0375,0.0398,0.0408,0.0407,0.0406,0.0412,0.0413,0.0411,0.0414,0.0352,0.0405,0.0404,0.0404,0.0404,0.0404,0.0177,0.0194,0.0212,0.0235,0.0249,0.0266,0.0283,0.0294,0.0315,0.034,0.0342,0.0369,0.0387,0.0418,0.0429,0.0451,0.0445,0.0453,0.0455,0.0458,0.046,0.0407,0.0454,0.0454,0.0454,0.0454,0.0454,0,0.0216,0.0229,0.025,0.0275,0.0294,0.0292,0.0312,0.0327,0.0351,0.0368,0.0388,0.0417,0.0441,0.0455,0.0479,0.0493,0.0494,0.05,0.0499,0.0502,0.0463,0.0456,0.0499,0.0499,0.0499,0.0499,0.0499,0.0499,0.0239,0.0269,0.0276,0.0314,0.0326,0.0353,0.0365,0.0381,0.0395,0.0428,0.0448,0.0458,0.0474,0.05,0.0522,0.0526,0.0536,0.0542,0.0546,0.0509,0.0504,0.05,0.0494,0.0544,0.0544,0.0583,0.0584,0.0584]}]]